EW6230 Weather Reports


time (UTC)temp
F
wind
direction
speed
knots
gust
knots
rain 1hr
in
rain 24hr
in
rain mn
in
humidity
%
barometer
mb
20260904133005 0 0.0 0.0 0.00 0.01 0.00 1008.6
20260904131603 0 0.0 0.0 0.00 0.01 0.00 1008.6
20260904130058 0 0.0 0.0 0.00 0.01 0.00 1008.4
20260904124602 0 0.0 0.0 0.00 0.01 0.00 1008.3
20260904123047 0 0.0 0.0 0.00 0.01 0.00 1008.3
20260904121542 0 0.0 0.0 0.00 0.01 0.00 1008.2
20260904120037 0 0.0 0.0 0.00 0.01 0.00 1008.3
20260904114533 48 79 0.0 0.0 0.00 0.01 0.00 1 1008.1
20260904113029 49 79 0.0 0.0 0.00 0.01 0.00 1 1007.9
20260904111524 49 79 0.0 0.0 0.00 0.01 0.00 1 1007.8
20260904110020 49 79 0.0 0.0 0.00 0.01 0.00 1 1007.7
20260904104517 49 79 0.0 0.0 0.00 0.01 0.00 1 1007.7
20260904103012 49 79 0.0 0.0 0.00 0.01 0.00 1 1007.6
20260904101508 49 79 0.0 0.0 0.00 0.01 0.00 1 1007.5
20260904100121 49 79 0.0 0.0 0.00 0.01 0.00 1 1007.5
20260904094554 49 79 0.0 0.0 0.00 0.01 0.00 1 1007.5
20260904093054 49 79 0.0 0.0 0.00 0.01 0.00 1 1007.6
20260904091553 49 79 0.0 0.0 0.00 0.01 0.00 1 1007.5
20260904090041 49 79 0.0 0.0 0.00 0.01 0.00 1 1007.6
20260904084537 49 79 0.0 0.0 0.00 0.01 0.00 1 1007.5
20260904083036 50 79 0.0 0.0 0.00 0.01 0.00 1 1007.6
20260904081528 50 79 0.0 0.0 0.00 0.01 0.00 1 1007.7
20260904080023 50 79 0.0 0.0 0.00 0.01 0.00 1 1007.8
20260904074530 50 79 0.0 0.0 0.00 0.01 0.00 1 1007.8
20260904073019 50 79 0.0 0.0 0.00 0.01 0.00 1 1007.7
20260904071511 50 79 0.0 0.0 0.00 0.01 0.00 1 1007.6
20260904070008 50 79 0.0 0.0 0.00 0.01 0.00 1 1007.6
20260904064501 50 79 0.0 0.0 0.00 0.01 0.01 1 1007.5
20260904063059 51 79 0.0 0.0 0.00 0.01 0.01 1 1007.5
20260904061553 51 79 0.0 0.0 0.00 0.01 0.01 1 1007.4
20260904060049 52 79 0.0 0.0 0.00 0.01 0.01 1 1007.2
20260904054546 52 79 0.0 0.0 0.00 0.01 0.01 1 1007.2
20260904053050 52 79 0.0 0.0 0.00 0.01 0.01 1 1007.1
20260904051536 53 79 0.0 0.0 0.00 0.01 0.01 1 1007.3
20260904050033 53 79 0.0 0.0 0.00 0.01 0.01 1 1007.2
20260904044527 53 79 0.0 0.0 0.00 0.01 0.01 1 1007.3
20260904043022 53 79 0.0 0.0 0.00 0.01 0.01 1 1007.2
20260904041524 54 79 0.0 0.0 0.00 0.01 0.01 1 1007.3
20260904040013 54 79 0.0 0.0 0.00 0.01 0.01 1 1007.3
20260904034508 54 79 0.0 0.0 0.00 0.01 0.01 1 1007.2
20260904033006 55 79 0.0 0.0 0.00 0.01 0.01 1 1007.0
20260904031613 55 79 0.0 0.0 0.00 0.01 0.01 1 1006.9
20260904030055 55 80 0.0 0.0 0.00 0.01 0.01 1 1006.8
20260904024551 56 80 0.0 0.0 0.00 0.01 0.01 2 1006.6
20260904023048 56 80 0.0 0.0 0.00 0.01 0.01 1 1006.6
20260904021550 56 80 0.0 0.0 0.00 0.01 0.01 8 1006.5
20260904020042 56 80 0.0 0.0 0.00 0.01 0.01 14 1006.4
20260904014534 57 80 0.0 0.0 0.00 0.01 0.01 19 1006.2
20260904013030 57 80 0.0 0.9 0.00 0.01 0.01 22 1006.2
20260904011525 57 226 0.0 1.7 0.00 0.01 0.01 13 1006.2
20260904010022 57 205 0.0 0.0 0.00 0.01 0.01 14 1006.1
20260904004517 58 205 0.0 0.0 0.00 0.01 0.01 20 1006.0
20260904003014 59 210 0.0 0.0 0.00 0.01 0.01 31 1005.9
20260904001508 61 210 0.0 0.9 0.00 0.01 0.01 46 1005.8
20260904000003 63 210 0.0 0.9 0.01 0.01 0.01 58 1005.7
20260903234600 63 210 0.0 0.0 0.01 0.01 0.01 48 1005.7
20260903233055 61 210 0.0 1.7 0.01 0.01 0.01 49 1005.8
20260903231556 61 279 0.0 0.0 0.01 0.01 0.01 1 1005.9
20260903230050 60 279 0.0 0.0 0.00 0.00 0.00 6 1006.1
20260903224546 60 279 0.0 0.0 0.00 0.00 0.00 3 1006.2
20260903223039 60 279 0.0 0.9 0.00 0.00 0.00 29 1006.2
20260903221546 60 274 0.0 0.0 0.00 0.00 0.00 29 1006.2
20260903220031 60 274 0.0 0.0 0.00 0.00 0.00 21 1006.1
20260903214526 60 274 0.0 0.0 0.00 0.00 0.00 22 1006.2
20260903213023 60 274 0.0 0.0 0.00 0.00 0.00 38 1006.2
20260903211517 61 274 0.0 0.0 0.00 0.00 0.00 48 1006.0
20260903210015 60 248 0.0 0.0 0.00 0.00 0.00 51 1005.9
20260903204508 59 96 0.0 0.9 0.00 0.00 0.00 49 1005.9
20260903203005 59 129 0.0 0.9 0.00 0.00 0.00 46 1005.7
20260903201600 60 129 0.0 0.9 0.00 0.00 0.00 52 1005.6
20260903200055 60 79 0.0 0.9 0.00 0.00 0.00 56 1005.6
20260903194551 61 314 0.0 0.9 0.00 0.00 0.00 57 1005.6
20260903193048 62 95 0.0 1.7 0.00 0.00 0.00 57 1005.5
20260903191542 63 262 0.0 0.9 0.00 0.00 0.00 59 1005.3
20260903190037 64 219 0.0 0.9 0.00 0.00 0.00 62 1005.3
20260903184533 64 319 0.0 0.9 0.00 0.00 0.00 59 1005.2
20260903183029 63 139 0.0 0.9 0.00 0.00 0.00 55 1005.1
20260903181524 61 321 0.0 0.9 0.00 0.00 0.00 45 1005.0
20260903180033 60 352 0.0 0.9 0.00 0.00 0.00 37 1004.7
20260903174515 60 359 0.0 0.9 0.00 0.00 0.00 44 1004.6
20260903173010 60 2 0.0 0.9 0.00 0.00 0.00 46 1004.4
20260903171505 61 227 0.0 3.5 0.00 0.00 0.00 46 1004.3
20260903170001 61 217 0.0 0.9 0.00 0.00 0.00 43 1004.1
20260903164605 60 246 0.0 0.0 0.00 0.00 0.00 37 1004.0
20260903163052 59 246 0.0 0.0 0.00 0.00 0.00 19 1004.0
20260903161549 59 246 0.0 1.7 0.00 0.00 0.00 23 1004.0
20260903160043 59 1 0.0 0.0 0.00 0.00 0.00 10 1004.0
20260903154538 59 1 0.0 0.0 0.00 0.00 0.00 1 1004.0
20260903153034 56 1 0.0 0.0 0.00 0.00 0.00 1 1003.9
20260903151530 54 1 0.0 0.0 0.00 0.00 0.00 1 1004.0
20260903150026 53 1 0.0 0.9 0.00 0.00 0.00 1 1003.9
20260903144521 52 360 0.0 0.0 0.00 0.00 0.00 1 1003.9
20260903143016 52 359 0.0 0.0 0.00 0.00 0.00 1 1003.8
20260903141515 0 0.0 0.0 0.00 0.00 0.00 1003.6
20260903140007 0 0.0 0.0 0.00 0.00 0.00 1003.5
20260903134504 0 0.0 0.0 0.00 0.00 0.00 1003.4